TOM2GD FACT-FAPE

Flight info

Callsign TOM2GD
Flight time 1h 18m
Altitude 35000
Route OKTED1C OKTED UQ12 XUGOL UQ56 OKSET DCT PEV
Aircraft B738/M-SDE2E3FGHIRWXY/LB1

Departure

Time 2026-04-21 19:47
Airport Cape Town International Airport (FACT)

Arrival

Time 2026-04-21 21:05
Airport Chief Dawid Stuurman International Airport (FAPE)
Time Latitude Longitude Altitude Speed Heading
2026-04-21 19:14 -33.97219 18.59909 163 ft 0 kts 255°
2026-04-21 19:33 -33.97219 18.59910 163 ft 0 kts 255°
2026-04-21 19:35 -33.97219 18.59911 163 ft 0 kts 255°
2026-04-21 19:35 -33.97218 18.59913 163 ft 0 kts 255°
2026-04-21 19:35 -33.97218 18.59915 163 ft 0 kts 255°
2026-04-21 19:36 -33.97218 18.59916 163 ft 0 kts 255°
2026-04-21 19:36 -33.97218 18.59917 163 ft 2 kts 255°
2026-04-21 19:36 -33.97213 18.59937 163 ft 2 kts 262°
2026-04-21 19:36 -33.97217 18.59957 163 ft 3 kts 324°
2026-04-21 19:37 -33.97231 18.59968 163 ft 3 kts 329°
2026-04-21 19:37 -33.97247 18.59979 163 ft 3 kts 317°
2026-04-21 19:37 -33.97253 18.59997 163 ft 3 kts 279°
2026-04-21 19:37 -33.97256 18.60008 163 ft 0 kts 312°
2026-04-21 19:41 -33.97234 18.59997 163 ft 5 kts 340°
2026-04-21 19:41 -33.97187 18.59981 163 ft 7 kts 345°
2026-04-21 19:42 -33.97131 18.59964 163 ft 9 kts 347°
2026-04-21 19:42 -33.97067 18.59953 163 ft 9 kts 346°
2026-04-21 19:42 -33.97004 18.59934 163 ft 9 kts 346°
2026-04-21 19:42 -33.96937 18.59911 163 ft 13 kts 345°
2026-04-21 19:43 -33.96828 18.59876 163 ft 19 kts 345°
2026-04-21 19:43 -33.96674 18.59825 163 ft 25 kts 344°
2026-04-21 19:43 -33.96506 18.59779 163 ft 24 kts 348°
2026-04-21 19:43 -33.96347 18.59743 163 ft 23 kts 350°
2026-04-21 19:44 -33.96199 18.59753 159 ft 23 kts 41°
2026-04-21 19:44 -33.96086 18.59889 157 ft 23 kts 45°
2026-04-21 19:44 -33.96070 18.59907 155 ft 0 kts 45°
2026-04-21 19:45 -33.96052 18.59930 154 ft 12 kts 49°
2026-04-21 19:45 -33.96036 18.59997 153 ft 0 kts 109°
2026-04-21 19:46 -33.96081 18.60039 153 ft 17 kts 163°
2026-04-21 19:46 -33.96329 18.60117 152 ft 67 kts 165°
2026-04-21 19:46 -33.97038 18.60340 158 ft 142 kts 165°
2026-04-21 19:46 -33.98200 18.60697 209 ft 199 kts 167°
2026-04-21 19:47 -33.99635 18.61135 685 ft 223 kts 166°
2026-04-21 19:47 -34.01189 18.61582 1459 ft 231 kts 168°
2026-04-21 19:47 -34.02718 18.61954 2163 ft 223 kts 170°
2026-04-21 19:47 -34.04289 18.62262 2625 ft 233 kts 173°
2026-04-21 19:48 -34.05948 18.62491 2946 ft 244 kts 176°
2026-04-21 19:48 -34.07632 18.62647 3172 ft 246 kts 178°
2026-04-21 19:48 -34.09357 18.62721 2899 ft 255 kts 179°
2026-04-21 19:48 -34.11224 18.62714 2420 ft 263 kts 182°
2026-04-21 19:49 -34.13009 18.62676 2602 ft 248 kts 182°
2026-04-21 19:49 -34.14700 18.62645 2797 ft 240 kts 182°
2026-04-21 19:49 -34.16375 18.62624 3371 ft 243 kts 179°
2026-04-21 19:49 -34.18004 18.63255 3950 ft 256 kts 144°
2026-04-21 19:50 -34.18787 18.64331 4419 ft 264 kts 121°
2026-04-21 19:50 -34.19170 18.67263 5292 ft 276 kts 89°
2026-04-21 19:50 -34.19084 18.69598 6017 ft 279 kts 90°
2026-04-21 19:50 -34.19034 18.71952 6720 ft 281 kts 91°
2026-04-21 19:51 -34.19024 18.74345 7350 ft 287 kts 92°
2026-04-21 19:51 -34.19047 18.76775 8071 ft 291 kts 94°
2026-04-21 19:51 -34.19099 18.79256 8677 ft 301 kts 96°
2026-04-21 19:51 -34.19372 18.81856 8872 ft 324 kts 102°
2026-04-21 19:52 -34.19671 18.84627 9315 ft 338 kts 97°
2026-04-21 19:52 -34.19752 18.87458 10303 ft 332 kts 94°
2026-04-21 19:52 -34.19750 18.90187 11370 ft 321 kts 94°
2026-04-21 19:52 -34.19757 18.92903 12008 ft 328 kts 94°
2026-04-21 19:53 -34.19798 18.95739 12247 ft 347 kts 95°
2026-04-21 19:53 -34.19869 18.98688 12574 ft 362 kts 95°
2026-04-21 19:53 -34.19961 19.01729 13410 ft 359 kts 96°
2026-04-21 19:53 -34.20060 19.04692 14484 ft 349 kts 96°
2026-04-21 19:54 -34.20166 19.07612 14940 ft 347 kts 96°
2026-04-21 19:54 -34.20278 19.10523 15207 ft 347 kts 97°
2026-04-21 19:54 -34.20393 19.13442 15198 ft 347 kts 96°
2026-04-21 19:54 -34.20507 19.16343 15213 ft 345 kts 96°
2026-04-21 19:55 -34.20620 19.19242 15221 ft 346 kts 96°
2026-04-21 19:55 -34.20734 19.22149 15218 ft 346 kts 96°
2026-04-21 19:55 -34.20846 19.25050 15230 ft 346 kts 97°
2026-04-21 19:55 -34.20958 19.27955 15304 ft 344 kts 97°
2026-04-21 19:56 -34.21070 19.30844 15544 ft 345 kts 97°
2026-04-21 19:56 -34.21182 19.33723 15775 ft 351 kts 97°
2026-04-21 19:56 -34.21295 19.36689 16008 ft 353 kts 97°
2026-04-21 19:56 -34.21407 19.39665 16226 ft 354 kts 97°
2026-04-21 19:57 -34.21518 19.42645 16457 ft 355 kts 97°
2026-04-21 19:57 -34.21628 19.45639 16690 ft 357 kts 97°
2026-04-21 19:57 -34.21740 19.48640 16927 ft 358 kts 96°
2026-04-21 19:57 -34.21851 19.51658 17148 ft 359 kts 96°
2026-04-21 19:58 -34.21959 19.54639 17384 ft 361 kts 96°
2026-04-21 19:58 -34.21993 19.57699 17617 ft 365 kts 90°
2026-04-21 19:58 -34.21825 19.60769 17860 ft 368 kts 88°
2026-04-21 19:58 -34.21584 19.63858 18109 ft 374 kts 86°
2026-04-21 19:59 -34.21323 19.67048 18387 ft 387 kts 86°
2026-04-21 19:59 -34.21062 19.70355 18635 ft 400 kts 87°
2026-04-21 19:59 -34.20809 19.73708 19229 ft 398 kts 87°
2026-04-21 19:59 -34.20566 19.77037 19920 ft 395 kts 87°
2026-04-21 20:00 -34.20333 19.80331 20627 ft 391 kts 86°
2026-04-21 20:00 -34.20106 19.83583 21351 ft 386 kts 86°
2026-04-21 20:00 -34.19885 19.86758 22079 ft 381 kts 86°
2026-04-21 20:00 -34.19665 19.89922 22829 ft 374 kts 86°
2026-04-21 20:01 -34.19449 19.93024 23593 ft 366 kts 86°
2026-04-21 20:01 -34.19237 19.96045 24254 ft 357 kts 86°
2026-04-21 20:01 -34.19027 19.99047 24530 ft 364 kts 86°
2026-04-21 20:01 -34.18809 20.02156 24597 ft 377 kts 86°
2026-04-21 20:02 -34.18659 20.04273 24670 ft 385 kts 86°
2026-04-21 20:02 -34.18347 20.08682 24798 ft 402 kts 86°
2026-04-21 20:02 -34.18103 20.12099 24891 ft 415 kts 85°
2026-04-21 20:02 -34.17851 20.15630 24975 ft 427 kts 85°
2026-04-21 20:03 -34.17597 20.19210 25060 ft 439 kts 86°
2026-04-21 20:03 -34.17510 20.22952 25145 ft 451 kts 91°
2026-04-21 20:03 -34.17597 20.26786 25226 ft 462 kts 94°
2026-04-21 20:03 -34.17755 20.30716 25306 ft 474 kts 94°
2026-04-21 20:04 -34.17926 20.34743 25370 ft 484 kts 94°
2026-04-21 20:04 -34.18084 20.38851 25439 ft 494 kts 94°
2026-04-21 20:04 -34.18223 20.43037 25498 ft 504 kts 93°
2026-04-21 20:04 -34.18346 20.47314 25563 ft 513 kts 92°
2026-04-21 20:05 -34.18458 20.51654 25606 ft 522 kts 92°
2026-04-21 20:05 -34.18563 20.56073 25656 ft 530 kts 92°
2026-04-21 20:05 -34.18666 20.60554 25701 ft 537 kts 92°
2026-04-21 20:05 -34.18770 20.65091 25816 ft 542 kts 92°
2026-04-21 20:06 -34.18874 20.69652 26072 ft 544 kts 92°
2026-04-21 20:06 -34.18977 20.74223 26361 ft 544 kts 92°
2026-04-21 20:06 -34.19080 20.78791 26711 ft 544 kts 92°
2026-04-21 20:06 -34.19180 20.83297 26998 ft 545 kts 91°
2026-04-21 20:07 -34.19281 20.87882 27226 ft 547 kts 91°
2026-04-21 20:07 -34.19379 20.92475 27531 ft 546 kts 91°
2026-04-21 20:07 -34.19445 20.95586 27772 ft 546 kts 91°
2026-04-21 20:07 -34.19570 21.01658 28253 ft 545 kts 91°
2026-04-21 20:08 -34.19662 21.06222 28583 ft 544 kts 91°
2026-04-21 20:08 -34.19753 21.10800 28903 ft 545 kts 91°
2026-04-21 20:08 -34.19842 21.15374 29223 ft 545 kts 91°
2026-04-21 20:08 -34.19929 21.19964 29502 ft 546 kts 91°
2026-04-21 20:09 -34.20015 21.24541 29811 ft 546 kts 90°
2026-04-21 20:09 -34.20100 21.29134 30158 ft 545 kts 90°
2026-04-21 20:09 -34.20182 21.33719 30475 ft 545 kts 90°
2026-04-21 20:09 -34.20263 21.38289 30769 ft 544 kts 90°
2026-04-21 20:10 -34.20341 21.42801 31039 ft 544 kts 90°
2026-04-21 20:10 -34.20418 21.47370 31208 ft 546 kts 90°
2026-04-21 20:10 -34.20494 21.51978 31189 ft 548 kts 90°
2026-04-21 20:11 -34.20618 21.59686 31180 ft 546 kts 90°
2026-04-21 20:11 -34.20757 21.68773 31188 ft 542 kts 90°
2026-04-21 20:12 -34.20891 21.77885 31179 ft 541 kts 90°
2026-04-21 20:12 -34.21017 21.86981 31177 ft 541 kts 90°
2026-04-21 20:13 -34.21136 21.96062 31185 ft 541 kts 90°
2026-04-21 20:13 -34.21249 22.05177 31209 ft 543 kts 90°
2026-04-21 20:14 -34.21355 22.14323 31168 ft 545 kts 89°
2026-04-21 20:14 -34.21455 22.23450 31156 ft 547 kts 89°
2026-04-21 20:15 -34.21549 22.32659 31163 ft 549 kts 89°
2026-04-21 20:15 -34.21637 22.41908 31151 ft 550 kts 89°
2026-04-21 20:16 -34.21719 22.51162 31170 ft 551 kts 89°
2026-04-21 20:16 -34.21794 22.60423 31172 ft 551 kts 89°
2026-04-21 20:17 -34.21862 22.69632 31175 ft 551 kts 89°
2026-04-21 20:17 -34.21924 22.78897 31064 ft 552 kts 89°
2026-04-21 20:17 -34.21953 22.83535 30795 ft 551 kts 88°
2026-04-21 20:18 -34.21980 22.88165 30561 ft 549 kts 88°
2026-04-21 20:18 -34.22004 22.92785 30329 ft 550 kts 88°
2026-04-21 20:18 -34.22027 22.97385 30043 ft 541 kts 88°
2026-04-21 20:18 -34.22050 23.01896 29745 ft 531 kts 88°
2026-04-21 20:19 -34.22070 23.06266 29454 ft 522 kts 88°
2026-04-21 20:19 -34.22087 23.10623 29168 ft 513 kts 88°
2026-04-21 20:19 -34.22103 23.14902 28886 ft 504 kts 88°
2026-04-21 20:19 -34.22117 23.19110 28608 ft 496 kts 88°
2026-04-21 20:20 -34.22129 23.23248 28333 ft 489 kts 88°
2026-04-21 20:20 -34.22139 23.27331 28057 ft 481 kts 88°
2026-04-21 20:20 -34.22147 23.31305 27794 ft 476 kts 88°
2026-04-21 20:20 -34.22153 23.35296 27541 ft 475 kts 88°
2026-04-21 20:21 -34.22158 23.39299 27291 ft 477 kts 88°
2026-04-21 20:21 -34.22161 23.43315 27025 ft 478 kts 87°
2026-04-21 20:21 -34.22164 23.47334 26615 ft 477 kts 88°
2026-04-21 20:21 -34.22166 23.51354 25971 ft 479 kts 88°
2026-04-21 20:22 -34.22167 23.55371 25379 ft 477 kts 88°
2026-04-21 20:22 -34.22166 23.63374 24212 ft 474 kts 88°
2026-04-21 20:22 -34.22163 23.67353 23628 ft 471 kts 88°
2026-04-21 20:23 -34.22159 23.71242 22956 ft 467 kts 88°
2026-04-21 20:23 -34.22154 23.75141 22284 ft 462 kts 88°
2026-04-21 20:23 -34.22148 23.79024 21640 ft 458 kts 88°
2026-04-21 20:23 -34.22140 23.82866 21005 ft 454 kts 88°
2026-04-21 20:24 -34.22132 23.86388 20432 ft 450 kts 89°
2026-04-21 20:24 -34.22122 23.90149 19819 ft 445 kts 89°
2026-04-21 20:24 -34.22111 23.93878 19212 ft 441 kts 89°
2026-04-21 20:24 -34.22100 23.97533 18642 ft 437 kts 89°
2026-04-21 20:25 -34.22087 24.01190 17998 ft 433 kts 89°
2026-04-21 20:25 -34.22073 24.04809 17343 ft 429 kts 89°
2026-04-21 20:25 -34.22058 24.08405 16685 ft 425 kts 89°
2026-04-21 20:25 -34.22042 24.11964 16054 ft 421 kts 89°
2026-04-21 20:26 -34.22026 24.15474 15433 ft 417 kts 89°
2026-04-21 20:26 -34.22009 24.18967 14821 ft 412 kts 90°
2026-04-21 20:26 -34.21991 24.22414 14227 ft 408 kts 90°
2026-04-21 20:26 -34.21972 24.25832 13590 ft 405 kts 90°
2026-04-21 20:27 -34.21952 24.29182 12945 ft 401 kts 90°
2026-04-21 20:27 -34.21932 24.32538 12304 ft 397 kts 90°
2026-04-21 20:27 -34.21911 24.35855 11672 ft 393 kts 90°
2026-04-21 20:27 -34.21889 24.39138 11056 ft 389 kts 90°
2026-04-21 20:28 -34.21867 24.42398 10446 ft 386 kts 90°
2026-04-21 20:28 -34.21845 24.45635 9831 ft 383 kts 90°
2026-04-21 20:28 -34.21821 24.48836 9174 ft 380 kts 90°
2026-04-21 20:28 -34.21797 24.52024 8524 ft 377 kts 90°
2026-04-21 20:29 -34.21772 24.55180 7885 ft 374 kts 91°
2026-04-21 20:29 -34.21747 24.58312 7265 ft 371 kts 91°
2026-04-21 20:29 -34.21721 24.61391 6670 ft 369 kts 91°
2026-04-21 20:29 -34.21631 24.64474 6020 ft 367 kts 83°
2026-04-21 20:30 -34.21077 24.67479 5421 ft 365 kts 75°
2026-04-21 20:30 -34.20386 24.70365 5187 ft 350 kts 74°
2026-04-21 20:30 -34.19711 24.73116 5093 ft 333 kts 74°
2026-04-21 20:30 -34.19063 24.75783 5115 ft 329 kts 74°
2026-04-21 20:31 -34.18430 24.78430 5090 ft 326 kts 75°
2026-04-21 20:31 -34.17809 24.81067 5093 ft 327 kts 75°
2026-04-21 20:31 -34.17191 24.83721 5111 ft 329 kts 75°
2026-04-21 20:31 -34.16581 24.86352 5099 ft 330 kts 75°
2026-04-21 20:32 -34.15963 24.89030 5087 ft 331 kts 75°
2026-04-21 20:32 -34.15346 24.91709 5086 ft 330 kts 75°
2026-04-21 20:32 -34.14731 24.94381 5107 ft 332 kts 75°
2026-04-21 20:32 -34.14112 24.97069 5096 ft 331 kts 75°
2026-04-21 20:33 -34.13498 24.99732 5093 ft 327 kts 75°
2026-04-21 20:33 -34.12890 25.02368 5089 ft 327 kts 75°
2026-04-21 20:33 -34.12277 25.05021 5098 ft 330 kts 75°
2026-04-21 20:33 -34.11657 25.07707 5105 ft 332 kts 75°
2026-04-21 20:34 -34.11026 25.10438 5121 ft 350 kts 75°
2026-04-21 20:34 -34.10365 25.13327 5097 ft 360 kts 77°
2026-04-21 20:34 -34.09921 25.16299 5097 ft 361 kts 86°
2026-04-21 20:34 -34.09824 25.19314 5084 ft 357 kts 95°
2026-04-21 20:35 -34.10066 25.22238 5065 ft 353 kts 103°
2026-04-21 20:35 -34.10519 25.25149 5009 ft 355 kts 105°
2026-04-21 20:35 -34.11018 25.28080 4736 ft 356 kts 105°
2026-04-21 20:35 -34.11523 25.30998 4476 ft 355 kts 105°
2026-04-21 20:36 -34.12017 25.33915 4224 ft 354 kts 103°
2026-04-21 20:36 -34.12266 25.36868 3964 ft 353 kts 94°
2026-04-21 20:36 -34.12164 25.39830 3701 ft 352 kts 85°
2026-04-21 20:36 -34.11717 25.42730 3452 ft 350 kts 76°
2026-04-21 20:37 -34.10944 25.45486 3186 ft 343 kts 66°
2026-04-21 20:37 -34.09782 25.47852 3491 ft 313 kts 47°
2026-04-21 20:37 -34.08302 25.49588 3502 ft 288 kts 33°
2026-04-21 20:37 -34.06726 25.50953 3312 ft 267 kts 31°
2026-04-21 20:38 -34.05287 25.52235 3106 ft 250 kts 31°
2026-04-21 20:38 -34.03867 25.53417 2525 ft 248 kts 25°
2026-04-21 20:38 -34.02428 25.54629 1880 ft 257 kts 38°
2026-04-21 20:38 -34.01274 25.56295 1238 ft 262 kts 54°
2026-04-21 20:39 -34.00349 25.58165 807 ft 255 kts 56°
2026-04-21 20:39 -33.99501 25.59883 1155 ft 222 kts 55°
2026-04-21 20:39 -33.98762 25.61508 1538 ft 231 kts 57°
2026-04-21 20:39 -33.97833 25.63131 1948 ft 234 kts 44°
2026-04-21 20:40 -33.96668 25.64440 2636 ft 234 kts 32°
2026-04-21 20:40 -33.95222 25.65505 3010 ft 248 kts 18°
2026-04-21 20:40 -33.93542 25.66234 3141 ft 268 kts
2026-04-21 20:40 -33.91693 25.66564 3713 ft 270 kts 355°
2026-04-21 20:41 -33.89815 25.66623 4217 ft 269 kts 352°
2026-04-21 20:41 -33.87972 25.66518 4726 ft 262 kts 343°
2026-04-21 20:41 -33.86210 25.66024 5232 ft 260 kts 333°
2026-04-21 20:41 -33.84543 25.65136 5566 ft 264 kts 324°
2026-04-21 20:42 -33.83042 25.63909 5581 ft 257 kts 313°
2026-04-21 20:42 -33.81798 25.62405 5576 ft 250 kts 302°
2026-04-21 20:42 -33.80848 25.60681 5576 ft 246 kts 292°
2026-04-21 20:42 -33.80215 25.58792 5581 ft 242 kts 281°
2026-04-21 20:43 -33.79848 25.56829 5584 ft 242 kts 279°
2026-04-21 20:43 -33.79445 25.54861 5581 ft 243 kts 280°
2026-04-21 20:43 -33.79027 25.52890 5582 ft 243 kts 280°
2026-04-21 20:43 -33.78611 25.50921 5583 ft 244 kts 280°
2026-04-21 20:44 -33.78195 25.48962 5586 ft 244 kts 280°
2026-04-21 20:44 -33.77770 25.46986 5579 ft 243 kts 280°
2026-04-21 20:44 -33.77503 25.45000 5585 ft 238 kts 270°
2026-04-21 20:44 -33.77407 25.43021 5579 ft 237 kts 270°
2026-04-21 20:45 -33.77310 25.41044 5590 ft 237 kts 270°
2026-04-21 20:45 -33.77445 25.39092 5586 ft 234 kts 253°
2026-04-21 20:45 -33.78091 25.37299 5587 ft 233 kts 243°
2026-04-21 20:45 -33.78853 25.35600 5587 ft 233 kts 242°
2026-04-21 20:46 -33.79635 25.33887 5588 ft 235 kts 242°
2026-04-21 20:46 -33.80426 25.32160 5579 ft 235 kts 242°
2026-04-21 20:46 -33.81217 25.30436 5590 ft 235 kts 242°
2026-04-21 20:46 -33.82166 25.28834 5576 ft 239 kts 222°
2026-04-21 20:47 -33.83635 25.27861 5581 ft 246 kts 201°
2026-04-21 20:47 -33.85388 25.27926 5589 ft 266 kts 167°
2026-04-21 20:47 -33.87022 25.29094 5482 ft 278 kts 154°
2026-04-21 20:47 -33.88745 25.30171 5169 ft 278 kts 167°
2026-04-21 20:48 -33.90531 25.30775 4791 ft 258 kts 175°
2026-04-21 20:48 -33.92233 25.31244 4354 ft 244 kts 176°
2026-04-21 20:48 -33.93840 25.31649 3965 ft 232 kts 177°
2026-04-21 20:48 -33.95362 25.32007 3748 ft 214 kts 180°
2026-04-21 20:49 -33.96818 25.32247 3314 ft 213 kts 181°
2026-04-21 20:49 -33.98245 25.32462 2996 ft 202 kts 182°
2026-04-21 20:49 -33.99614 25.32652 2722 ft 196 kts 181°
2026-04-21 20:49 -34.00942 25.32846 2529 ft 180 kts 183°
2026-04-21 20:50 -34.01997 25.33027 2932 ft 129 kts 185°
2026-04-21 20:50 -34.02908 25.33238 3107 ft 142 kts 182°
2026-04-21 20:50 -34.03880 25.33525 3452 ft 141 kts 178°
2026-04-21 20:50 -34.04892 25.33899 3144 ft 161 kts 175°
2026-04-21 20:51 -34.05925 25.34336 2894 ft 151 kts 173°
2026-04-21 20:51 -34.06867 25.34761 2683 ft 138 kts 175°
2026-04-21 20:51 -34.07768 25.35139 2278 ft 138 kts 175°
2026-04-21 20:51 -34.08639 25.35674 1999 ft 139 kts 162°
2026-04-21 20:52 -34.09463 25.36294 1974 ft 142 kts 158°
2026-04-21 20:52 -34.10243 25.37124 2267 ft 156 kts 138°
2026-04-21 20:52 -34.10781 25.38367 2355 ft 180 kts 109°
2026-04-21 20:52 -34.10825 25.39883 2396 ft 180 kts 79°
2026-04-21 20:53 -34.10337 25.41267 2681 ft 180 kts 50°
2026-04-21 20:53 -34.09513 25.42439 2821 ft 184 kts 42°
2026-04-21 20:53 -34.08657 25.43576 2919 ft 183 kts 42°
2026-04-21 20:53 -34.07814 25.44720 3052 ft 181 kts 44°
2026-04-21 20:54 -34.06986 25.45854 3265 ft 185 kts 45°
2026-04-21 20:54 -34.06154 25.47086 3225 ft 188 kts 50°
2026-04-21 20:54 -34.05434 25.48395 2951 ft 188 kts 58°
2026-04-21 20:54 -34.04803 25.49737 2613 ft 180 kts 57°
2026-04-21 20:55 -34.04371 25.50593 2332 ft 178 kts 55°
2026-04-21 20:55 -34.03749 25.51831 2038 ft 168 kts 54°
2026-04-21 20:55 -34.03129 25.52994 1677 ft 162 kts 50°
2026-04-21 20:55 -34.02486 25.54125 1358 ft 164 kts 47°
2026-04-21 20:56 -34.01815 25.55250 1168 ft 169 kts 50°
2026-04-21 20:56 -34.01223 25.56507 974 ft 175 kts 52°
2026-04-21 20:56 -34.00579 25.57727 715 ft 171 kts 49°
2026-04-21 20:56 -33.99958 25.58857 504 ft 152 kts 55°
2026-04-21 20:57 -33.99435 25.59916 265 ft 145 kts 55°
2026-04-21 20:57 -33.98865 25.60995 237 ft 159 kts 53°
2026-04-21 20:57 -33.98286 25.62125 664 ft 159 kts 53°
2026-04-21 20:57 -33.97658 25.63149 1303 ft 152 kts 42°
2026-04-21 20:58 -33.96916 25.64128 1829 ft 160 kts 32°
2026-04-21 20:58 -33.96026 25.64949 2396 ft 166 kts 24°
2026-04-21 20:58 -33.94987 25.65718 2826 ft 182 kts 21°
2026-04-21 20:58 -33.93908 25.66497 3042 ft 196 kts 23°
2026-04-21 20:59 -33.92697 25.67371 2931 ft 204 kts 24°
2026-04-21 20:59 -33.91529 25.68291 2855 ft 202 kts 29°
2026-04-21 20:59 -33.90387 25.69312 2566 ft 206 kts 32°
2026-04-21 20:59 -33.89449 25.70599 2402 ft 204 kts 60°
2026-04-21 21:00 -33.89069 25.72189 2486 ft 195 kts 93°
2026-04-21 21:00 -33.89319 25.73689 3105 ft 168 kts 127°
2026-04-21 21:00 -33.90040 25.74723 3256 ft 167 kts 168°
2026-04-21 21:00 -33.91103 25.74838 3111 ft 148 kts 208°
2026-04-21 21:01 -33.91834 25.74022 2631 ft 142 kts 238°
2026-04-21 21:01 -33.92430 25.73155 2477 ft 129 kts 231°
2026-04-21 21:01 -33.93055 25.72433 2535 ft 125 kts 228°
2026-04-21 21:01 -33.93539 25.71622 2403 ft 116 kts 246°
2026-04-21 21:02 -33.93840 25.70749 2025 ft 112 kts 248°
2026-04-21 21:02 -33.94263 25.69969 1612 ft 109 kts 239°
2026-04-21 21:02 -33.94680 25.69209 1386 ft 109 kts 246°
2026-04-21 21:02 -33.95020 25.68384 1286 ft 111 kts 247°
2026-04-21 21:03 -33.95447 25.67600 1269 ft 116 kts 236°
2026-04-21 21:03 -33.95879 25.66803 1047 ft 114 kts 248°
2026-04-21 21:03 -33.96253 25.65972 1023 ft 117 kts 239°
2026-04-21 21:03 -33.96711 25.65157 841 ft 114 kts 244°
2026-04-21 21:04 -33.97116 25.64332 714 ft 118 kts 241°
2026-04-21 21:04 -33.97587 25.63469 608 ft 124 kts 243°
2026-04-21 21:04 -33.98034 25.62592 399 ft 124 kts 242°
2026-04-21 21:04 -33.98500 25.61714 215 ft 116 kts 242°
2026-04-21 21:05 -33.98859 25.61003 212 ft 78 kts 239°
2026-04-21 21:05 -33.99069 25.60601 206 ft 35 kts 237°
2026-04-21 21:05 -33.99147 25.60450 206 ft 21 kts 239°
2026-04-21 21:05 -33.99222 25.60302 202 ft 20 kts 236°
2026-04-21 21:06 -33.99256 25.60155 199 ft 20 kts 309°
2026-04-21 21:06 -33.99136 25.60091 198 ft 12 kts
2026-04-21 21:06 -33.99131 25.60093 198 ft 2 kts 21°
2026-04-21 21:06 -33.99085 25.60161 205 ft 19 kts 57°
2026-04-21 21:07 -33.98985 25.60347 206 ft 31 kts 57°
2026-04-21 21:07 -33.98887 25.60527 206 ft 0 kts 57°
2026-04-21 21:07 -33.98853 25.60591 208 ft 20 kts 57°
2026-04-21 21:08 -33.98743 25.60793 204 ft 34 kts 58°
2026-04-21 21:08 -33.98648 25.60967 208 ft 5 kts 54°
2026-04-21 21:08 -33.98623 25.61010 209 ft 11 kts 50°
2026-04-21 21:08 -33.98591 25.61015 204 ft 3 kts 341°
2026-04-21 21:09 -33.98571 25.61002 208 ft 0 kts 328°